Location: Newark
(25.4297°S, 49.2719°W)
Time: 12:46:29
(UTC+00:00)

Tiros 1 - Pass Details

Date: 14 November 2019
Orbit: 630 x 664 km, 48.4° (Epoch: 14 December)

Event Time Altitude Azimuth Distance (km) Brightness Sun altitude
Exits shadow 07:32:27 - 258° (WSW) 2,246 9.5 -11.0°
Reaches altitude 10° 07:33:04 10° 252° (WSW) 2,091 9.3 -10.9°
Maximum altitude 07:36:11 17° 212° (SSW) 1,679 9.2 -10.3°
Drops below altitude 10° 07:39:19 10° 171° (S) 2,094 10.3 -9.6°
Sets 07:42:28 0° 151° (SSE) 3,006 11.6 -9.0°
